Location: Bannatyne
(13.0833°N, 59.5333°W)
Time: 04:30:50
(UTC+00:00)

deb Explorer IX - Pass Details

Date: 01 February 2020
Orbit: 549 x 1099 km, 38.8° (Epoch: 19 February)

Event Time Altitude Azimuth Distance (km) Brightness Sun altitude
Rises 20:01:02 0° 230° (SW) 2,889 ? 25.9°
Reaches altitude 10° 20:03:12 10° 230° (SW) 2,046 ? 25.4°
Maximum altitude 20:07:58 87° 140° (SE) 724 ? 24.3°
Drops below altitude 10° 20:13:35 10° 52° (NE) 2,400 ? 23.1°
Sets 20:16:18 0° 52° (NE) 3,431 ? 22.5°
